Date String (YYYY-MM-DD hh:mm:ss) UTC,Instrument flags,absolute air pressure of the measurement (hPa),sample flow rate (lpm),inlet stack bypass flow (lpm),air temperature of the measurement (°C),ambient temperature measured by the external sensor (°C),aerosol sample conditioner tube jacket temperature (°C),OPC LED temperature (°C),internal box temperature (°C),relative humidity of the measurement (%),span deviation,mass concentration of particles derived from Lorenz-Mie calculation of OPC scattering (μg/m³),mass concentration of particles derived from Lorenz-Mie calculation of OPC scattering (μg/m³),mass concentration of particles derived from Lorenz-Mie calculation of OPC scattering (μg/m³)
DateTimeUTC,F1_M11,P_M11,Q1_M11,Q2_M11,T1_M11,T2_M11,T3_M11,T4_M11,T5_M11,U1_M11,ZSPAN_M11,X0_M11,X2_M11,X1_M11
2024-05-05 09:00:00,SystemResetWarning,0823.4,4.99,000.00,025.6,024.9,000.0,033.9,027.3,020.0,0000.0,0014.14,0004.87,0003.64
2024-05-05 09:01:00,SystemResetWarning,0823.4,5.00,000.00,025.6,024.9,000.0,033.9,027.3,019.8,0000.0,0014.80,0004.88,0003.64
2024-05-05 09:02:00,SystemResetWarning,0823.4,5.00,000.00,025.6,024.9,000.0,033.9,027.3,020.0,0000.0,0013.86,0004.89,0003.63
2024-05-05 09:03:00,SystemResetWarning,0823.3,4.99,000.00,025.6,024.9,000.0,033.9,027.3,019.9,0000.0,0014.07,0004.84,0003.63
2024-05-05 09:04:00,SystemResetWarning,0823.3,5.00,000.00,025.6,024.9,000.0,033.9,027.4,020.2,0000.0,0014.02,0004.79,0003.64
2024-05-05 09:05:00,SystemResetWarning,0823.4,5.00,000.00,025.6,024.9,000.0,033.9,027.4,020.1,0000.0,0014.00,0004.79,0003.63
2024-05-05 09:06:00,SystemResetWarning,0823.4,5.00,000.00,025.6,024.9,000.0,033.9,027.4,020.1,0000.0,0013.98,0004.80,0003.64
2024-05-05 09:07:00,SystemResetWarning,0823.4,5.00,000.00,025.6,024.9,000.0,033.9,027.4,019.8,0000.0,0014.31,0004.83,0003.64
2024-05-05 09:08:00,SystemResetWarning,0823.4,5.01,000.00,025.6,025.0,000.0,033.9,027.4,019.6,0000.0,0015.45,0004.85,0003.64
2024-05-05 09:09:00,SystemResetWarning,0823.4,5.01,000.00,025.6,025.0,000.0,033.9,027.3,019.4,0000.0,0015.56,0004.84,0003.64
2024-05-05 09:10:00,SystemResetWarning,0823.3,4.99,000.00,025.6,025.0,000.0,034.0,027.4,019.4,0000.0,0015.57,0004.82,0003.64
2024-05-05 09:11:00,SystemResetWarning,0823.4,5.00,000.00,025.6,025.0,000.0,034.0,027.4,019.7,0000.0,0015.65,0004.80,0003.64
2024-05-05 09:12:00,SystemResetWarning,0823.4,5.02,000.00,025.6,025.0,000.0,034.0,027.4,019.7,0000.0,0016.00,0004.77,0003.63
2024-05-05 09:13:00,SystemResetWarning,0823.4,5.00,000.00,025.6,025.0,000.0,034.0,027.4,019.9,0000.0,0015.75,0004.74,0003.63
2024-05-05 09:14:00,SystemResetWarning,0823.4,4.99,000.00,025.6,025.0,000.0,034.0,027.4,019.8,0000.0,0015.47,0004.80,0003.63
2024-05-05 09:15:00,SystemResetWarning,0823.4,5.00,000.00,025.6,025.0,000.0,034.0,027.4,019.7,0000.0,0015.53,0004.85,0003.63
2024-05-05 09:16:00,SystemResetWarning,0823.4,5.01,000.00,025.6,025.0,000.0,034.0,027.4,019.6,0000.0,0015.70,0004.86,0003.62
2024-05-05 09:17:00,SystemResetWarning,0823.4,5.01,000.00,025.7,025.0,000.0,034.0,027.4,019.6,0000.0,0016.04,0004.84,0003.61
2024-05-05 09:18:00,SystemResetWarning,0823.4,5.00,000.00,025.7,025.0,000.0,034.0,027.4,019.6,0000.0,0016.08,0004.85,0003.60
2024-05-05 09:19:00,SystemResetWarning,0823.4,4.99,000.00,025.7,025.0,000.0,034.0,027.4,019.5,0000.0,0015.10,0004.83,0003.60
2024-05-05 09:20:00,SystemResetWarning,0823.4,4.99,000.00,025.7,025.0,000.0,034.0,027.4,019.5,0000.0,0014.61,0004.87,0003.59
2024-05-05 09:21:00,SystemResetWarning,0823.4,4.99,000.00,025.7,025.0,000.0,034.0,027.4,019.5,0000.0,0014.46,0004.88,0003.60
2024-05-05 09:22:00,SystemResetWarning,0823.4,5.00,000.00,025.7,025.0,000.0,034.0,027.5,019.8,0000.0,0016.05,0004.91,0003.61
2024-05-05 09:23:00,SystemResetWarning,0823.4,5.00,000.00,025.7,025.0,000.0,034.0,027.5,020.0,0000.0,0015.34,0004.95,0003.62
2024-05-05 09:24:00,SystemResetWarning,0823.3,5.00,000.00,025.7,025.0,000.0,034.0,027.4,020.2,0000.0,0015.47,0004.99,0003.63
2024-05-05 09:25:00,SystemResetWarning,0823.3,5.00,000.00,025.7,024.9,000.0,034.0,027.4,020.6,0000.0,0016.04,0004.99,0003.63
2024-05-05 09:26:00,SystemResetWarning,0823.3,5.01,000.00,025.6,024.9,000.0,034.0,027.4,020.7,0000.0,0016.07,0005.01,0003.64
2024-05-05 09:27:00,SystemResetWarning,0823.3,5.01,000.00,025.6,024.9,000.0,034.0,027.4,020.6,0000.0,0016.58,0005.05,0003.67
2024-05-05 09:28:00,SystemResetWarning,0823.3,4.99,000.00,025.6,024.8,000.0,034.0,027.4,020.8,0000.0,0016.95,0005.06,0003.69
2024-05-05 09:29:00,SystemResetWarning,0823.2,4.99,000.00,025.6,024.8,000.0,034.0,027.4,020.9,0000.0,0016.66,0005.07,0003.72
2024-05-05 09:30:00,SystemResetWarning,0823.2,5.02,000.00,025.6,024.7,000.0,034.0,027.3,020.9,0000.0,0017.07,0005.10,0003.73
2024-05-05 09:31:00,SystemResetWarning,0823.1,5.00,000.00,025.6,024.7,000.0,034.0,027.3,020.9,0000.0,0017.28,0005.08,0003.75
2024-05-05 09:32:00,SystemResetWarning,0823.1,4.99,000.00,025.5,024.7,000.0,034.0,027.3,021.0,0000.0,0016.73,0005.08,0003.76
2024-05-05 09:33:00,SystemResetWarning,0823.1,4.99,000.00,025.5,024.6,000.0,034.0,027.3,021.0,0000.0,0015.36,0005.12,0003.76
2024-05-05 09:34:00,SystemResetWarning,0823.1,5.02,000.00,025.5,024.6,000.0,034.0,027.2,021.1,0000.0,0015.22,0005.11,0003.76
2024-05-05 09:35:00,SystemResetWarning,0823.1,5.00,000.00,025.4,024.6,000.0,034.0,027.1,021.1,0000.0,0015.17,0005.08,0003.76
2024-05-05 09:36:00,SystemResetWarning,0823.2,4.98,000.00,025.4,024.6,000.0,034.0,027.1,021.2,0000.0,0014.69,0005.05,0003.76
2024-05-05 09:37:00,SystemResetWarning,0823.1,5.01,000.00,025.4,024.5,000.0,034.0,027.0,021.2,0000.0,0014.27,0005.03,0003.77
2024-05-05 09:38:00,SystemResetWarning,0823.0,5.00,000.00,025.3,024.5,000.0,034.0,027.0,021.2,0000.0,0013.99,0004.93,0003.76
2024-05-05 09:39:00,SystemResetWarning,0823.0,5.01,000.00,025.3,024.4,000.0,033.9,027.0,021.1,0000.0,0013.64,0004.96,0003.78
2024-05-05 09:40:00,SystemResetWarning,0823.0,5.00,000.00,025.3,024.4,000.0,033.9,027.0,021.1,0000.0,0013.48,0004.96,0003.76
2024-05-05 09:41:00,SystemResetWarning,0823.0,5.01,000.00,025.3,024.4,000.0,033.9,027.0,021.2,0000.0,0013.34,0004.98,0003.77
2024-05-05 09:42:00,SystemResetWarning,0823.0,5.00,000.00,025.3,024.4,000.0,033.9,027.1,021.2,0000.0,0013.85,0005.01,0003.78
2024-05-05 09:43:00,SystemResetWarning,0823.0,5.00,000.00,025.3,024.4,000.0,033.9,027.0,021.2,0000.0,0013.73,0004.98,0003.79
2024-05-05 09:44:00,SystemResetWarning,0823.0,5.00,000.00,025.2,024.4,000.0,033.9,027.0,021.3,0000.0,0014.41,0005.00,0003.81
2024-05-05 09:45:00,SystemResetWarning,0823.0,5.00,000.00,025.2,024.3,000.0,033.9,027.0,021.4,0000.0,0014.07,0004.98,0003.81
2024-05-05 09:46:00,SystemResetWarning,0823.0,5.00,000.00,025.2,024.3,000.0,033.8,027.0,021.4,0000.0,0013.86,0005.00,0003.81
2024-05-05 09:47:00,SystemResetWarning,0823.0,5.00,000.00,025.2,024.3,000.0,033.8,027.0,021.4,0000.0,0013.54,0005.04,0003.81
2024-05-05 09:48:00,SystemResetWarning,0823.0,5.01,000.00,025.2,024.3,000.0,033.8,027.0,021.3,0000.0,0013.43,0005.00,0003.80
2024-05-05 09:49:00,SystemResetWarning,0823.0,4.99,000.00,025.2,024.3,000.0,033.8,027.0,021.3,0000.0,0012.70,0005.05,0003.80
2024-05-05 09:50:00,SystemResetWarning,0822.9,5.00,000.00,025.2,024.3,000.0,033.8,027.0,021.2,0000.0,0012.13,0005.06,0003.79
2024-05-05 09:51:00,SystemResetWarning,0823.0,4.99,000.00,025.2,024.3,000.0,033.8,027.0,021.2,0000.0,0012.87,0005.06,0003.79
2024-05-05 09:52:00,SystemResetWarning,0822.9,5.01,000.00,025.1,024.3,000.0,033.8,026.9,021.2,0000.0,0013.16,0005.06,0003.79
2024-05-05 09:53:00,SystemResetWarning,0822.9,5.01,000.00,025.1,024.3,000.0,033.8,026.9,021.2,0000.0,0012.29,0005.07,0003.79
2024-05-05 09:54:00,SystemResetWarning,0823.0,4.99,000.00,025.1,024.3,000.0,033.8,026.9,021.2,0000.0,0012.04,0005.08,0003.78
2024-05-05 09:55:00,SystemResetWarning,0822.9,4.99,000.00,025.1,024.3,000.0,033.8,026.9,021.1,0000.0,0011.15,0005.04,0003.78
2024-05-05 09:56:00,SystemResetWarning,0822.8,5.00,000.00,025.1,024.2,000.0,033.7,026.9,021.1,0000.0,0011.24,0005.07,0003.78
2024-05-05 09:57:00,SystemResetWarning,0822.9,5.00,000.00,025.1,024.2,000.0,033.7,026.8,021.2,0000.0,0011.09,0005.06,0003.79
2024-05-05 09:58:00,SystemResetWarning,0823.1,5.00,000.00,025.1,024.2,000.0,033.7,026.8,021.2,0000.0,0010.89,0005.05,0003.80
2024-05-05 09:59:00,SystemResetWarning,0823.2,5.01,000.00,025.1,024.2,000.0,033.7,026.8,021.1,0000.0,0011.24,0005.07,0003.80
